sat.trackr.live / text

‹ back to catalog

STARLINK-5826

NORAD 55782 · 2023-028AT

PAYLOAD ACTIVE UNKNOWN

§ Identity

Operator
Country
US
Launch date
2023-03-03
Launch site
AFWTR
Launch vehicle
Mass (kg)
RCS (m²)

Purposes: comms

External: N2YO · Heavens-Above · Gunter

§ Orbital elements

Epoch: 2026-09-20T22:00:03.000096Z

Period
95.57 min
Inclination
70.0026°
Eccentricity
0.0002994
Mean motion
15.06727521 rev/d
Perigee alt
544.1 km
Apogee alt
548.3 km
Semi-major
6,924.3 km
B*
5.5106e-3
RAAN
72.3150°
Arg perigee
230.9281°
Mean anomaly
256.8953°
Rev number
552

§ Raw data

STARLINK-58261 55782U 23028AT  26263.91670139  .00082945  00000+0  55106-2 0  99932 55782  70.0026  72.3150 0002994 230.9281 256.8953 15.06727521  5527

JSON: /api/v1/satellites/55782 · /tle

For live sub-satellite position, see the globe view (requires WebGL).

§ Visibility from observer

Set your observer location to see the next 7 days of passes ≥ 10°. The values pass through the URL so the page stays shareable.

No JS? Fill the form by hand. The geolocation button needs JavaScript.